Regional Weather Roundup
Issued by NWS

Home | Current Version | Previous Version | Graphics & Text | Print | Product List | Glossary On
Versions: 1 2 3 4 5 6 7 8 9 10 11 12 13 14 15 16 17 18 19 20 21 22 23 24 25 26 27 28 29 30 31 32 33 34 35 36 37 38 39 40 41 42 43 44 45 46 47 48 49 50
000
ASUS45 KCYS 020310
RWRWY

WYOMING REGIONAL WEATHER ROUNDUP
NATIONAL WEATHER SERVICE CHEYENNE WY
900 PM MDT SAT AUG 01 2015

NOTE:  "FAIR" INDICATES FEW OR NO CLOUDS BELOW 12,000 FEET
WITH NO SIGNIFICANT WEATHER AND/OR OBSTRUCTIONS TO VISIBILITY.

WYZ001-020400-
YELLOWSTONE NATIONAL PARK

CITY           SKY/WX    TMP DP  RH WIND       PRES   REMARKS
LK YELLOWSTONE   N/A     59  37  44 NW3       30.32S
W YELLOWSTONE  NOT AVBL

$$
WYZ002>013-054>058-071-098>099-020400-
NORTHERN WYOMING

CITY           SKY/WX    TMP DP  RH WIND       PRES   REMARKS
JACKSON        NOT AVBL
CODY           FAIR      81  34  18 CALM      30.06S
GREYBULL       FAIR      87  24  10 NW3       29.94R
WORLAND        FAIR      74  28  18 E5        29.97R
SHERIDAN       FAIR      66  45  46 S3        29.97R
BUFFALO        FAIR      73  32  22 W12       30.06S
GILLETTE       FAIR      68  35  29 CALM      30.00R
HULETT         FAIR      73  39  29 S7        29.99S
NEWCASTLE      FAIR      73  32  21 SE7       30.00R

$$
WYZ014>020-022>026-101>103-020400-
CENTRAL WYOMING

CITY           SKY/WX    TMP DP  RH WIND       PRES   REMARKS
BIG PINEY      FAIR      66  32  28 NW7       30.23S
PINEDALE       FAIR      64  34  32 NW8       30.24S
DUBOIS         FAIR      70  21  16 NW9       30.23R
LANDER         FAIR      78  35  21 W8        30.07R
RIVERTON       FAIR      80  28  15 NE7       30.08R
CASPER         FAIR      75  31  19 N12       30.07R
DOUGLAS        FAIR      75  35  23 E9        30.05R

$$
WYZ021-027>030-104>119-020400-
SOUTHERN WYOMING

CITY           SKY/WX    TMP DP  RH WIND       PRES   REMARKS
EVANSTON       FAIR      72  25  17 N8        30.23S
KEMMERER       FAIR      70  28  21 N10       30.26R
FORT BRIDGER   CLEAR     75  21  13 NW8       30.24S
ROCK SPRINGS   FAIR      74  24  15 W7        30.18S
DIXON          FAIR      72  31  22 E3        30.18R
RAWLINS        FAIR      73  31  21 N9        30.18S
SARATOGA       FAIR      70  28  21 W7        30.20S
LARAMIE        FAIR      68  41  37 SE6       30.23R
CHEYENNE       FAIR      75  47  36 E9G17     30.15R
TORRINGTON     FAIR      71  58  63 SE9       30.01R
PINE BLUFFS    FAIR      70  54  56 SE14G21   30.11R

$$



USA.gov is the U.S. government's official web portal to all federal, state and local government web resources and services.